This demonstration page uses our WeatherBlox Daily Observations layout. Learn more.

Left ArrowRight Arrow

Hourly Observations for March 5, 2015

Temp ( °F °C ) Dew Point ( °F °C ) Humidity (%) Winds ( mph kmh ) Pressure ( in mb ) Visibility ( mi km ) Precip ( " mm )
12:15 am 00:15 Clear 19 -7 1 -17 45 45 N 13 20 30.33 1027 10 16 N/A
12:36 am 00:36 Clear 19 -7 1 -17 45 45 N 15 24 30.33 1027 10 16 N/A
12:55 am 00:55 Clear 19 -7 3 -16 49 49 N 15 24 30.33 1027 10 16 N/A
1:15 am 01:15 Clear 19 -7 1 -17 45 45 N 13 20 30.30 1026 10 16 N/A
1:36 am 01:36 Clear 19 -7 3 -16 49 49 N 12 19 30.33 1027 10 16 N/A
1:55 am 01:55 Clear 19 -7 1 -17 45 45 N 12 19 30.33 1027 10 16 N/A
2:16 am 02:16 Clear 19 -7 1 -17 45 45 N 10 17 30.33 1027 10 16 N/A
2:36 am 02:36 Clear 19 -7 3 -16 49 49 NNW 10 17 30.33 1027 10 16 N/A
2:55 am 02:55 Clear 19 -7 5 -15 53 53 NNW 9 15 30.36 1028 10 16 N/A
3:16 am 03:16 Clear 18 -8 5 -15 58 58 NNW 9 15 30.33 1027 10 16 N/A
3:36 am 03:36 Clear 18 -8 5 -15 58 58 NNW 12 19 30.33 1027 10 16 N/A
3:55 am 03:55 Clear 18 -8 3 -16 53 53 N 10 17 30.33 1027 10 16 N/A
4:16 am 04:16 Clear 18 -8 3 -16 53 53 NNW 12 19 30.36 1028 10 16 N/A
4:36 am 04:36 Clear 18 -8 5 -15 58 58 N 10 17 30.33 1027 10 16 N/A
4:55 am 04:55 Clear 18 -8 3 -16 53 53 NNW 10 17 30.36 1028 10 16 N/A
5:16 am 05:16 Clear 18 -8 3 -16 53 53 NNW 10 17 30.36 1028 10 16 N/A
5:36 am 05:36 Clear 18 -8 3 -16 53 53 N 9 15 30.36 1028 10 16 N/A
5:55 am 05:55 Clear 18 -8 3 -16 53 53 N 10 17 30.33 1027 10 16 N/A
6:16 am 06:16 Clear 18 -8 1 -17 49 49 NNW 10 17 30.39 1029 10 16 N/A
6:36 am 06:36 Clear 16 -9 1 -17 53 53 N 12 19 30.39 1029 10 16 N/A
6:55 am 06:55 Clear 16 -9 1 -17 53 53 NNW 12 19 30.39 1029 10 16 N/A
7:16 am 07:16 Sunny 16 -9 1 -17 53 53 N 10 17 30.39 1029 10 16 N/A
7:36 am 07:36 Sunny 16 -9 N/A 48 48 N 14 22 30.36 1028 10 16 N/A
7:55 am 07:55 Sunny 16 -9 1 -17 53 53 N 12 19 30.39 1029 10 16 N/A
8:16 am 08:16 Sunny 16 -9 1 -17 53 53 N 9 15 30.39 1029 10 16 N/A
8:36 am 08:36 Sunny 16 -9 1 -17 53 53 N 8 13 30.42 1030 10 16 N/A
8:55 am 08:55 Sunny 18 -8 1 -17 49 49 N 7 11 30.42 1030 10 16 N/A
9:16 am 09:16 Sunny 18 -8 1 -17 49 49 NNE 7 11 30.42 1030 10 16 N/A
9:36 am 09:36 Sunny 18 -8 1 -17 49 49 N 6 9 30.42 1030 10 16 N/A
9:55 am 09:55 Sunny 18 -8 1 -17 49 49 N 6 9 30.42 1030 10 16 N/A
10:16 am 10:16 Sunny 19 -7 1 -17 45 45 N 6 9 30.45 1031 10 16 N/A
10:36 am 10:36 Sunny 19 -7 1 -17 45 45 N 7 11 30.45 1031 10 16 N/A
10:55 am 10:55 Sunny 21 -6 1 -17 42 42 N 9 15 30.45 1031 10 16 N/A
11:16 am 11:16 Sunny 21 -6 N/A 38 38 N 8 13 30.45 1031 10 16 N/A
11:35 am 11:35 Sunny 23 -5 N/A 36 36 NNE 6 9 30.45 1031 10 16 N/A
11:55 am 11:55 Sunny 23 -5 -2 -19 33 33 NNE 8 13 30.45 1031 10 16 N/A
12:16 pm 12:16 Partly Cloudy 23 -5 -2 -19 33 33 N 9 15 30.48 1032 10 16 N/A
12:35 pm 12:35 Partly Cloudy 23 -5 -2 -19 33 33 NNE 12 19 30.48 1032 10 16 N/A
12:55 pm 12:55 Sunny 23 -5 N/A 36 36 N 9 15 30.48 1032 10 16 N/A
1:16 pm 13:16 Sunny 23 -5 -2 -19 33 33 N 12 19 30.48 1032 10 16 N/A
1:56 pm 13:56 Partly Cloudy 25 -4 N/A 33 33 NNE 8 13 30.48 1032 10 16 N/A
2:16 pm 14:16 Partly Cloudy 23 -5 N/A 36 36 N 12 19 30.48 1032 10 16 N/A
2:35 pm 14:35 Partly Cloudy 23 -5 N/A 36 36 NNW 15 24 30.48 1032 10 16 N/A
2:56 pm 14:56 Partly Cloudy 23 -5 -2 -19 33 33 NNW 13 20 30.48 1032 10 16 N/A
3:16 pm 15:16 Sunny 21 -6 -2 -19 35 35 NNW 12 19 30.48 1032 10 16 N/A
3:35 pm 15:35 Partly Cloudy 23 -5 -2 -19 33 33 NNW 14 22 30.50 1033 10 16 N/A
3:56 pm 15:56 Partly Cloudy 23 -5 N/A 36 36 NNW 12 19 30.50 1033 10 16 N/A
4:15 pm 16:15 Partly Cloudy 21 -6 -2 -19 35 35 NW 12 19 30.50 1033 10 16 N/A
4:35 pm 16:35 Partly Cloudy 19 -7 N/A 42 42 N 8 13 30.50 1033 10 16 N/A
4:56 pm 16:56 Partly Cloudy 21 -6 1 -17 42 42 N 12 19 30.50 1033 10 16 N/A
5:15 pm 17:15 Mostly Cloudy 21 -6 1 -17 42 42 N 9 15 30.53 1034 10 16 N/A
5:35 pm 17:35 Mostly Cloudy 21 -6 N/A 38 38 N 10 17 30.53 1034 10 16 N/A
5:56 pm 17:56 Mostly Cloudy 19 -7 1 -17 45 45 N 10 17 30.53 1034 10 16 N/A
6:15 pm 18:15 Mostly Cloudy 19 -7 5 -15 53 53 NNW 9 15 30.56 1035 5 8 N/A
6:36 pm 18:36 Mostly Cloudy 18 -8 5 -15 58 58 NNW 6 9 30.56 1035 7 11 N/A
6:56 pm 18:56 Mostly Cloudy 18 -8 5 -15 58 58 NW 3 6 30.56 1035 10 16 N/A
7:15 pm 19:15 Mostly Cloudy 18 -8 5 -15 58 58 NNW 8 13 30.56 1035 10 16 N/A
7:36 pm 19:36 Partly Cloudy 14 -10 1 -17 57 57 NW 6 9 30.59 1036 10 16 N/A
7:56 pm 19:56 Partly Cloudy 14 -10 1 -17 57 57 NW 6 9 30.62 1037 10 16 N/A
8:15 pm 20:15 Partly Cloudy 14 -10 3 -16 62 62 NW 5 7 30.62 1037 10 16 N/A
8:36 pm 20:36 Clear 14 -10 3 -16 62 62 NW 5 7 30.62 1037 10 16 N/A
8:56 pm 20:56 Clear 12 -11 1 -17 62 62 NW 7 11 30.62 1037 10 16 N/A
9:15 pm 21:15 Clear 12 -11 -2 -19 52 52 NW 6 9 30.62 1037 10 16 N/A
9:36 pm 21:36 Clear 12 -11 -2 -19 52 52 WNW 8 13 30.65 1038 10 16 N/A
9:56 pm 21:56 Clear 12 -11 -4 -20 48 48 NW 5 7 30.65 1038 10 16 N/A
10:15 pm 22:15 Clear 10 -12 -6 -21 47 47 NW 6 9 30.65 1038 10 16 N/A
10:36 pm 22:36 Clear 10 -12 -4 -20 52 52 NW 3 6 30.62 1037 10 16 N/A
10:56 pm 22:56 Clear 5 -15 -6 -21 60 60 NNW 3 6 30.62 1037 10 16 N/A
11:15 pm 23:15 Clear 7 -14 -6 -21 56 56 N N/A 30.65 1038 10 16 N/A
11:36 pm 23:36 Clear 5 -15 -6 -21 60 60 WNW 5 7 30.62 1037 10 16 N/A
11:56 pm 23:56 Clear 1 -17 -11 -24 55 55 W 3 6 30.68 1039 10 16 N/A

Powered by AerisWeather